This is the latest recevied weather packets stored in our database for station/object M0JUI-1. If no packets are shown the sender has not sent any weather packets the latest 10 day(s).
| Time | Temp. | Humidity | Pressure | Rain* | Wind** | Luminosity | Snow |
|---|---|---|---|---|---|---|---|
| 1788170757 | 15.56° C | 15% | 1010.2 hPa | 5.33 mm | - | 275 W/m² | - |
| 1788170456 | 15.56° C | 15% | 1010.1 hPa | 5.84 mm | - | 321 W/m² | - |
| 1788170159 | 15° C | 14% | 1010.1 hPa | 7.37 mm | - | 224 W/m² | - |
| 1788169856 | 15° C | 14% | 1010 hPa | 7.62 mm | - | 176 W/m² | - |
| 1788169556 | 15° C | 13% | 1009.7 hPa | 8.38 mm | - | 86 W/m² | - |
| 1788169256 | 15° C | 12% | 1009.7 hPa | 8.13 mm | - | 41 W/m² | - |
| 1788168957 | 15° C | 11% | 1009.8 hPa | 6.6 mm | - | 44 W/m² | - |
| 1788168656 | 15.56° C | 11% | 1009.5 hPa | 4.57 mm | - | 78 W/m² | - |
| 1788168356 | 15.56° C | 10% | 1009.6 hPa | 3.81 mm | - | 146 W/m² | - |
| 1788168057 | 15° C | 9% | 1009.4 hPa | 3.81 mm | - | 157 W/m² | - |
| 1788167756 | 15° C | 8% | 1009.4 hPa | 3.81 mm | - | 108 W/m² | - |
| 1788167456 | 14.44° C | 7% | 1009.2 hPa | 3.81 mm | - | 72 W/m² | - |
| 1788167156 | 14.44° C | 5% | 1009.1 hPa | 3.81 mm | - | 32 W/m² | - |
| 1788166856 | 15° C | 3% | 1009.2 hPa | 3.3 mm | - | 23 W/m² | - |
| 1788166556 | 15° C | 1% | 1008.9 hPa | 1.78 mm | - | 31 W/m² | - |
| 1788166257 | 15° C | 1% | 1008.9 hPa | 1.27 mm | - | 59 W/m² | - |
| 1788165956 | 15.56° C | 1% | 1008.7 hPa | 0.25 mm | - | 116 W/m² | - |
| 1788165656 | 15.56° C | 1% | 1008.6 hPa | 0 mm | - | 124 W/m² | - |
| 1788165356 | 15.56° C | 99% | 1008.6 hPa | 0 mm | - | 107 W/m² | - |
| 1788165044 | 15.56° C | 99% | 1008.6 hPa | 0 mm | - | 195 W/m² | - |
| 1788164744 | 15.56° C | 99% | 1008.4 hPa | 0 mm | - | 331 W/m² | - |
| 1788164444 | 15° C | 1% | 1008.4 hPa | 0 mm | - | 185 W/m² | - |
| 1788164144 | 15° C | 1% | 1008.4 hPa | 0 mm | - | 262 W/m² | - |
| 1788163844 | 14.44° C | 6% | 1008.3 hPa | 0 mm | - | 209 W/m² | - |
| 1788163544 | 14.44° C | 10% | 1008.3 hPa | 0 mm | - | 108 W/m² | - |
* Rain latest hour (hover to see other rain measurements)
** Current wind speed in m/s (hover to see current wind gust speed)